FW8369 Weather Reports


Display with metric or nautical units.
time (UTC)temp
F
wind
direction
speed
MPH
gust
MPH
rain 1hr
in
rain 24hr
in
rain mn
in
humidity
%
barometer
mb
20260502193904 78 326 0.0 0.0 0.00 0.00 0.00 90 1009.1
20260502192904 78 327 0.0 0.0 0.00 0.00 0.00 90 1009.2
20260502191905 78 329 0.0 0.0 0.00 0.00 0.00 90 1009.1
20260502191404 78 329 0.0 0.0 0.00 0.00 0.00 90 1009.2
20260502190903 78 329 0.0 0.0 0.00 0.00 0.00 90 1009.1
20260502190404 78 287 0.0 1.0 0.00 0.00 0.00 89 1009.0
20260502185404 78 287 0.0 1.0 0.00 0.00 0.00 89 1009.1
20260502184406 78 277 0.0 1.0 0.00 0.00 0.00 89 1009.4
20260502182904 78 277 0.0 0.0 0.00 0.00 0.00 88 1009.4
20260502182403 78 277 0.0 0.0 0.00 0.00 0.00 88 1009.4
20260502181904 78 277 0.0 0.0 0.00 0.00 0.00 89 1009.3
20260502180904 78 276 0.0 0.0 0.00 0.00 0.00 88 1009.4
20260502170403 78 337 0.0 0.0 0.00 0.00 0.00 90 1010.3
20260502163904 78 52 2.0 3.0 0.00 0.00 0.00 89 1010.5
20260502163404 78 335 0.0 0.0 0.00 0.00 0.00 89 1010.5
20260502162904 78 337 0.0 0.0 0.00 0.00 0.00 89 1010.5
20260502162404 78 344 0.0 0.0 0.00 0.00 0.00 89 1010.5
20260502161904 78 2 0.0 0.0 0.00 0.00 0.00 89 1010.6
20260502161404 78 20 0.0 0.0 0.00 0.00 0.00 89 1010.7
20260502160904 78 52 1.0 3.0 0.00 0.00 0.00 89 1010.6
20260502160405 79 37 0.0 2.0 0.00 0.00 0.00 88 1010.7
20260502151904 78 287 0.0 0.0 0.00 0.00 0.00 88 1011.2
20260502151404 78 287 0.0 0.0 0.00 0.00 0.00 88 1011.2
20260502150904 78 298 0.0 3.0 0.00 0.00 0.00 88 1011.0
20260502150404 78 296 0.0 2.0 0.00 0.00 0.00 89 1011.1
20260502130404 79 320 0.0 1.0 0.00 0.00 0.00 88 1010.1
20260502123404 79 268 0.0 0.0 0.00 0.00 0.00 87 1009.7
20260502122404 79 268 0.0 0.0 0.00 0.00 0.00 88 1009.6
20260502121904 79 268 0.0 1.0 0.00 0.00 0.00 88 1009.5
20260502121404 79 309 0.0 1.0 0.00 0.00 0.00 88 1009.5
20260502120904 79 343 1.0 2.0 0.00 0.00 0.00 88 1009.5
20260502120404 78 350 0.0 2.0 0.00 0.00 0.00 89 1009.5
20260502115404 78 314 0.0 3.0 0.00 0.00 0.00 88 1009.6
20260502114904 79 304 2.0 3.0 0.00 0.00 0.00 88 1009.5
20260502114404 79 330 1.0 3.0 0.00 0.00 0.00 87 1009.4
20260502113404 79 320 0.0 1.0 0.00 0.00 0.00 87 1009.3
20260502112904 79 339 0.0 0.0 0.00 0.00 0.00 86 1009.2
20260502112403 79 350 0.0 1.0 0.00 0.00 0.00 86 1009.1
20260502111904 79 347 2.0 3.0 0.00 0.00 0.00 86 1009.0
20260502111404 79 326 0.0 1.0 0.00 0.00 0.00 86 1009.1
20260502110404 80 332 0.0 1.0 0.00 0.00 0.00 86 1009.2
20260502105903 80 326 1.0 2.0 0.00 0.00 0.00 85 1009.2
20260502104904 80 1 1.0 3.0 0.00 0.00 0.00 85 1009.3
20260502104404 80 355 2.0 3.0 0.00 0.00 0.00 84 1009.3
20260502103403 80 314 0.0 1.0 0.00 0.00 0.00 85 1009.2
20260502102904 80 332 0.0 2.0 0.00 0.00 0.00 84 1009.1
20260502102404 80 333 0.0 1.0 0.00 0.00 0.00 84 1009.1
20260502101404 80 14 1.0 2.0 0.00 0.00 0.00 85 1008.9
20260502100404 80 324 0.0 2.0 0.00 0.00 0.00 86 1009.1
20260502091404 81 4 0.0 2.0 0.00 0.00 0.00 84 1008.7
20260502090405 81 301 1.0 2.0 0.00 0.00 0.00 83 1008.7
20260502071404 81 41 1.0 3.0 0.00 0.00 0.00 85 1009.7
20260502070904 80 37 1.0 3.0 0.00 0.00 0.00 85 1009.8
20260502070404 80 50 3.0 5.0 0.00 0.00 0.00 85 1009.9
20260502065904 80 66 2.0 6.0 0.00 0.00 0.00 85 1010.0
20260502065404 80 61 3.0 6.0 0.00 0.00 0.00 84 1010.0
20260502064904 81 47 1.0 6.0 0.00 0.00 0.00 83 1010.1
20260502064404 81 282 1.0 3.0 0.00 0.00 0.00 84 1010.1
20260502063404 80 29 2.0 7.0 0.00 0.00 0.00 85 1010.4
20260502062904 80 34 3.0 6.0 0.00 0.00 0.00 85 1010.4
20260502061904 80 42 5.0 9.0 0.00 0.00 0.00 84 1010.5
20260502061404 80 50 3.0 8.0 0.00 0.00 0.00 83 1010.6
20260502060404 80 13 0.0 1.0 0.00 0.00 0.00 84 1010.7
20260502055904 81 48 2.0 7.0 0.00 0.00 0.00 83 1010.7
20260502055404 81 55 0.0 3.0 0.00 0.00 0.00 83 1010.8
20260502054904 80 277 0.0 2.0 0.00 0.00 0.00 85 1010.9
20260502053903 80 41 3.0 5.0 0.00 0.00 0.00 84 1011.1
20260502053405 80 37 1.0 5.0 0.00 0.00 0.00 84 1011.2
20260502052904 80 63 3.0 5.0 0.00 0.00 0.00 84 1011.2
20260502052404 80 30 1.0 3.0 0.00 0.00 0.00 84 1011.3
20260502051904 80 39 3.0 6.0 0.00 0.00 0.00 84 1011.4
20260502051404 80 32 1.0 5.0 0.00 0.00 0.00 83 1011.5
20260502050904 81 12 0.0 3.0 0.00 0.00 0.00 84 1011.6
20260502050404 80 22 1.0 3.0 0.00 0.00 0.00 84 1011.6
20260502045904 80 40 3.0 7.0 0.00 0.00 0.00 84 1011.5
20260502045404 80 333 1.0 3.0 0.00 0.00 0.00 84 1011.6
20260502044904 80 333 2.0 3.0 0.00 0.00 0.00 84 1011.8
20260502044404 80 312 1.0 3.0 0.00 0.00 0.00 84 1011.9
20260502043404 80 333 2.0 3.0 0.00 0.00 0.00 83 1011.9
20260502042904 81 313 2.0 3.0 0.00 0.00 0.00 83 1011.9
20260502042404 81 60 3.0 6.0 0.00 0.00 0.00 83 1011.9
20260502041904 80 51 2.0 5.0 0.00 0.00 0.00 84 1012.0
20260502041403 80 316 1.0 3.0 0.00 0.00 0.00 85 1012.0
20260502040904 79 26 4.0 9.0 0.00 0.00 0.00 85 1012.1
20260502040404 80 63 5.0 12.0 0.00 0.00 0.00 84 1012.1
20260502035904 80 47 2.0 9.0 0.00 0.00 0.00 85 1012.0
20260502035404 80 61 5.0 7.0 0.00 0.00 0.00 85 1012.1
20260502034404 80 57 3.0 7.0 0.00 0.00 0.00 84 1012.2
20260502033904 80 51 2.0 6.0 0.00 0.00 0.00 84 1012.4
20260502033404 79 354 2.0 7.0 0.00 0.00 0.00 85 1012.5
20260502032904 80 54 3.0 7.0 0.00 0.00 0.00 84 1012.6
20260502032404 80 52 3.0 6.0 0.00 0.00 0.00 83 1012.6
20260502031904 80 62 3.0 6.0 0.00 0.00 0.00 83 1012.5
20260502031404 81 55 3.0 7.0 0.00 0.00 0.00 83 1012.6
20260502030904 81 58 2.0 6.0 0.00 0.00 0.00 82 1012.5
20260502030403 81 271 1.0 2.0 0.00 0.00 0.00 82 1012.6
20260502025903 80 244 0.0 3.0 0.00 0.00 0.00 85 1012.6
20260502025404 79 46 2.0 6.0 0.00 0.00 0.00 85 1012.6
20260502024904 80 56 3.0 6.0 0.00 0.00 0.00 84 1012.7
20260502024404 79 36 0.0 2.0 0.00 0.00 0.00 86 1012.8
20260502023904 79 54 1.0 5.0 0.00 0.00 0.00 86 1013.0
20260502023404 79 354 1.0 3.0 0.00 0.00 0.00 86 1013.0
20260502022904 78 357 2.0 5.0 0.00 0.00 0.00 86 1013.1
20260502021904 78 51 3.0 6.0 0.00 0.00 0.00 86 1013.0
20260502021404 78 22 2.0 6.0 0.00 0.00 0.00 87 1012.9
20260502020904 78 52 4.0 8.0 0.00 0.00 0.00 87 1012.8
20260502015904 78 58 2.0 8.0 0.00 0.00 0.00 87 1012.8
20260502014904 77 46 3.0 6.0 0.00 0.00 0.00 88 1012.7
20260502014405 77 44 3.0 7.0 0.00 0.00 0.00 88 1012.8
20260502013904 77 1 4.0 9.0 0.00 0.00 0.00 87 1012.7
20260502013404 77 57 6.0 9.0 0.00 0.00 0.00 87 1012.7
20260502012904 78 62 3.0 12.0 0.00 0.00 0.00 87 1012.7
20260502012404 78 62 3.0 6.0 0.00 0.00 0.00 87 1012.7
20260502011904 78 64 5.0 9.0 0.00 0.00 0.00 86 1012.6
20260502010904 78 23 2.0 5.0 0.00 0.00 0.00 86 1012.5
20260502010405 78 358 1.0 3.0 0.00 0.00 0.00 85 1012.5
20260502005904 78 318 0.0 1.0 0.00 0.00 0.00 86 1012.5
20260502005404 78 279 0.0 1.0 0.00 0.00 0.00 87 1012.5
20260502004404 78 284 0.0 3.0 0.00 0.00 0.00 87 1012.5
20260502003904 78 302 1.0 2.0 0.00 0.00 0.00 87 1012.3
20260502003403 78 264 0.0 1.0 0.00 0.00 0.00 87 1012.3
20260502002904 77 269 0.0 1.0 0.00 0.00 0.00 87 1012.4
20260502002403 77 240 1.0 6.0 0.00 0.00 0.00 87 1012.3
20260502001904 77 272 1.0 3.0 0.00 0.00 0.00 87 1012.3
20260502001404 78 252 1.0 2.0 0.00 0.00 0.00 87 1012.2
20260502000904 77 298 0.0 1.0 0.00 0.00 0.00 87 1012.2
20260502000404 77 283 1.0 2.0 0.00 0.00 0.00 87 1012.2
20260501235904 77 339 0.0 1.0 0.00 0.00 0.00 88 1012.2
20260501235404 77 3 0.0 2.0 0.00 0.00 0.00 88 1012.1
20260501234905 77 273 0.0 1.0 0.00 0.00 0.00 88 1011.9
20260501234404 77 248 1.0 3.0 0.00 0.00 0.00 88 1011.9
20260501233904 77 341 0.0 2.0 0.00 0.00 0.00 88 1011.9
20260501233404 77 282 1.0 3.0 0.00 0.00 0.00 88 1011.8
20260501232905 76 304 0.0 1.0 0.00 0.00 0.00 89 1011.9
20260501232404 76 326 0.0 1.0 0.00 0.00 0.00 89 1011.9
20260501231904 76 358 0.0 5.0 0.00 0.00 0.00 89 1011.8
20260501231404 76 322 0.0 2.0 0.00 0.00 0.00 89 1011.8
20260501230904 76 45 2.0 5.0 0.00 0.00 0.00 89 1011.8
20260501225904 76 316 0.0 1.0 0.00 0.00 0.00 89 1011.7
20260501225404 76 316 0.0 2.0 0.00 0.00 0.00 89 1011.6
20260501224904 76 325 0.0 2.0 0.00 0.00 0.00 89 1011.5
20260501224405 76 43 1.0 3.0 0.00 0.00 0.00 89 1011.5
20260501223904 76 324 0.0 5.0 0.00 0.00 0.00 89 1011.4
20260501223404 76 309 0.0 1.0 0.00 0.00 0.00 89 1011.3
20260501222904 76 334 1.0 3.0 0.00 0.00 0.00 89 1011.2
20260501222404 76 317 0.0 2.0 0.00 0.00 0.00 89 1011.2
20260501221404 76 40 1.0 5.0 0.00 0.00 0.00 89 1011.3
20260501220905 76 288 0.0 1.0 0.00 0.00 0.00 89 1011.4
20260501220404 76 289 0.0 1.0 0.00 0.00 0.00 89 1011.5
20260501215904 76 334 0.0 2.0 0.00 0.00 0.00 89 1011.5
20260501215404 76 62 1.0 3.0 0.00 0.00 0.00 89 1011.5
20260501214904 76 323 0.0 3.0 0.00 0.00 0.00 89 1011.6
20260501213904 76 33 0.0 2.0 0.00 0.00 0.00 89 1011.4
20260501213404 76 336 1.0 3.0 0.00 0.00 0.00 89 1011.4
20260501212904 76 62 0.0 2.0 0.00 0.00 0.00 88 1011.3
20260501212405 76 316 0.0 0.0 0.00 0.00 0.00 89 1011.3
20260501211904 76 21 0.0 0.0 0.00 0.00 0.00 89 1011.4
20260501211404 76 43 1.0 3.0 0.00 0.00 0.00 88 1011.5
20260501210904 77 246 0.0 1.0 0.00 0.00 0.00 88 1011.7
20260501210404 77 283 0.0 1.0 0.00 0.00 0.00 89 1011.5
20260501205404 76 277 0.0 2.0 0.00 0.00 0.00 89 1011.6
20260501204903 76 290 0.0 2.0 0.00 0.00 0.00 89 1011.5
20260501204404 76 295 0.0 1.0 0.00 0.00 0.00 89 1011.4
20260501203904 76 302 0.0 1.0 0.00 0.00 0.00 89 1011.2
20260501203404 76 302 0.0 1.0 0.00 0.00 0.00 89 1011.3
20260501202904 76 277 0.0 2.0 0.00 0.00 0.00 89 1011.1
20260501202404 76 284 0.0 2.0 0.00 0.00 0.00 89 1011.0
20260501201404 76 334 0.0 1.0 0.00 0.00 0.00 89 1011.3
20260501200903 76 335 0.0 2.0 0.00 0.00 0.00 89 1011.3
20260501200405 76 323 0.0 1.0 0.00 0.00 0.00 89 1011.1
20260501195904 76 305 0.0 2.0 0.00 0.00 0.00 88 1011.2
20260501195404 76 292 0.0 1.0 0.00 0.00 0.00 88 1011.1
20260501194904 76 292 0.0 2.0 0.00 0.00 0.00 88 1011.0
20260501194404 76 291 0.0 1.0 0.00 0.00 0.00 89 1011.0